Whyalla, Australia

2:39 PM ACST on May 25, 2017 (GMT +0930)
Whyalla

Weather History for YWHA - January, 2013

Change the Weather History Date:

Thursday, January 3, 2013

  Actual Average Record
Temperature  
Mean Temperature 80 °F -  
Max Temperature 100 °F - - ()
Min Temperature 60 °F - - ()
Cooling Degree Days 15    
Growing Degree Days 30 (Base 50)    
Moisture  
Dew Point 48 °F    
Average Humidity 36    
Maximum Humidity 73    
Minimum Humidity 10    
Precipitation  
Precipitation 0.00 in - - ()
Sea Level Pressure  
Sea Level Pressure 29.79 in    
Wind  
Wind Speed 7 mph ()    
Max Wind Speed 16 mph    
Max Gust Speed -    
Visibility 6.2 miles    
Events      
T = Trace of Precipitation, MM = Missing Value Source: Averaged Metar Reports

Daily Weather History Graph

Daily Weather History Graph

Search for Another Location

Airport or City:

Trip Planner

Search our weather history database for the weather conditions in past years. The results will help you decide how hot, cold, wet, or windy it might be!

Date:

Astronomy

Jan. 03, 2013 Rise Set
Actual Time 6:16 AM ACDT 8:32 PM ACDT
Civil Twilight 5:47 AM ACDT 9:00 PM ACDT
Nautical Twilight 5:12 AM ACDT 9:35 PM ACDT
Astronomical Twilight 4:34 AM ACDT 10:13 PM ACDT
Moon 11:52 PM ACDT (1/3) 11:30 AM ACDT (1/3)
Length of Visible Light 15h 13m
Length of Day
14h 16m
Waning Gibbous, 72% of the Moon is Illuminated
Jan 3
Waning Gibbous
Jan 5
Last Quarter
Jan 12
New
Jan 19
First Quarter
Jan 27
Full

Hourly Weather History & Observations

Time (ACDT) Temp. Heat Index Dew Point Humidity Pressure Visibility Wind Dir Wind Speed Gust Speed Precip Events Conditions
12:30 AM 71.6 °F - 60.8 °F 69% 29.92 in 6.2 mi SSW 6.9 mph - N/A   Unknown
1:30 AM 71.6 °F - 59.0 °F 64% 29.92 in 6.2 mi SSW 5.8 mph - N/A   Unknown
2:30 AM 68.0 °F - 57.2 °F 68% 29.89 in 6.2 mi SW 2.3 mph - N/A   Unknown
3:30 AM 66.2 °F - 57.2 °F 73% 29.86 in 6.2 mi SSW 6.9 mph - N/A   Unknown
4:30 AM 62.6 °F - 53.6 °F 72% 29.86 in 6.2 mi WNW 3.5 mph - N/A   Unknown
5:30 AM 62.6 °F - 53.6 °F 72% 29.86 in 6.2 mi WNW 4.6 mph - N/A   Unknown
6:30 AM 60.8 °F - 51.8 °F 72% 29.86 in 6.2 mi NW 5.8 mph - N/A   Unknown
7:30 AM 69.8 °F - 55.4 °F 60% 29.86 in 6.2 mi NNW 3.5 mph - N/A   Unknown
8:30 AM 80.6 °F 80.8 °F 57.2 °F 45% 29.89 in 6.2 mi WNW 3.5 mph - N/A   Unknown
9:30 AM 89.6 °F - 46.4 °F 22% 29.86 in 6.2 mi NNE 9.2 mph - N/A   Unknown
10:30 AM 93.2 °F - 50.0 °F 23% 29.86 in 6.2 mi East 6.9 mph - N/A   Unknown
11:30 AM 91.4 °F 89.1 °F 53.6 °F 28% 29.83 in 6.2 mi ESE 10.4 mph - N/A   Unknown
12:30 PM 95.0 °F - 50.0 °F 22% 29.80 in 6.2 mi ESE 11.5 mph - N/A   Unknown
1:30 PM 100.4 °F - 44.6 °F 15% 29.77 in 6.2 mi East 15.0 mph - N/A   Unknown
2:30 PM 100.4 °F - 39.2 °F 12% 29.74 in 6.2 mi East 16.1 mph - N/A   Unknown
3:30 PM 100.4 °F - 39.2 °F 12% 29.74 in 6.2 mi East 16.1 mph - N/A   Unknown
4:30 PM 100.4 °F - 33.8 °F 10% 29.71 in 6.2 mi East 16.1 mph - N/A   Unknown
5:30 PM 100.4 °F - 37.4 °F 11% 29.68 in 6.2 mi East 13.8 mph - N/A   Unknown
6:30 PM 100.4 °F - 39.2 °F 12% 29.68 in 6.2 mi East 13.8 mph - N/A   Unknown
7:30 PM 96.8 °F - 44.6 °F 17% 29.65 in 6.2 mi East 11.5 mph - N/A   Unknown
8:30 PM 91.4 °F - 41.0 °F 17% 29.68 in 6.2 mi ENE 6.9 mph - N/A   Unknown
9:30 PM 89.6 °F - 42.8 °F 20% 29.68 in 6.2 mi NE 6.9 mph - N/A   Unknown
10:30 PM 87.8 °F - 42.8 °F 21% 29.68 in 6.2 mi ENE 6.9 mph - N/A   Unknown
11:30 PM 84.2 °F - 44.6 °F 25% 29.68 in 6.2 mi NE 3.5 mph - N/A   Unknown